| time (UTC) | temp F | wind direction | speed MPH | gust MPH | rain 1hr in | rain 24hr in | rain mn in | humidity % | barometer mb |
| 20260507044003 | 38 | 0 | 0.0 | 0.0 | 0.00 | 0.00 | 0.00 | 87 | 1015.2 |
| 20260507043003 | 38 | 0 | 0.0 | 0.0 | 0.00 | 0.00 | 0.00 | 87 | 1015.0 |
| 20260507042003 | 38 | 0 | 0.0 | 0.0 | 0.00 | 0.00 | 0.00 | 86 | 1015.0 |
| 20260507041003 | 37 | 0 | 0.0 | 0.0 | 0.00 | 0.00 | 0.00 | 86 | 1014.9 |
| 20260507040217 | 37 | 0 | 0.0 | 0.0 | 0.00 | 0.00 | 0.00 | 85 | 1014.8 |
| 20260507035003 | 36 | 0 | 0.0 | 0.0 | 0.00 | 0.00 | 0.00 | 84 | 1014.7 |
| 20260507034216 | 36 | 0 | 0.0 | 0.0 | 0.00 | 0.00 | 0.00 | 84 | 1014.7 |
| 20260507033003 | 36 | 0 | 0.0 | 0.0 | 0.00 | 0.00 | 0.00 | 83 | 1014.6 |
| 20260507032003 | 36 | 0 | 0.0 | 0.0 | 0.00 | 0.00 | 0.00 | 83 | 1014.6 |
| 20260507031003 | 36 | 0 | 0.0 | 0.0 | 0.00 | 0.00 | 0.00 | 82 | 1014.5 |
| 20260507030003 | 36 | 0 | 0.0 | 0.0 | 0.00 | 0.00 | 0.00 | 82 | 1014.5 |
| 20260507025003 | 37 | 0 | 0.0 | 0.0 | 0.00 | 0.00 | 0.00 | 81 | 1014.4 |
| 20260507024003 | 37 | 0 | 0.0 | 0.0 | 0.00 | 0.00 | 0.00 | 81 | 1014.4 |
| 20260507023003 | 37 | 0 | 0.0 | 0.0 | 0.00 | 0.00 | 0.00 | 80 | 1014.4 |
| 20260507022003 | 38 | 0 | 0.0 | 0.0 | 0.00 | 0.00 | 0.00 | 80 | 1014.4 |
| 20260507021003 | 38 | 0 | 0.0 | 0.0 | 0.00 | 0.00 | 0.00 | 80 | 1014.4 |
| 20260507020003 | 38 | 0 | 0.0 | 0.0 | 0.00 | 0.00 | 0.00 | 79 | 1014.4 |
| 20260507015003 | 38 | 0 | 0.0 | 0.0 | 0.00 | 0.00 | 0.00 | 78 | 1014.4 |
| 20260507014003 | 39 | 0 | 0.0 | 0.0 | 0.00 | 0.00 | 0.00 | 77 | 1014.3 |
| 20260507013003 | 39 | 0 | 0.0 | 0.0 | 0.00 | 0.00 | 0.00 | 77 | 1014.3 |
| 20260507012003 | 40 | 0 | 0.0 | 0.0 | 0.00 | 0.00 | 0.00 | 76 | 1014.3 |
| 20260507010003 | 41 | 0 | 0.0 | 0.0 | 0.00 | 0.00 | 0.00 | 75 | 1014.3 |
| 20260507005217 | 41 | 0 | 0.0 | 0.0 | 0.00 | 0.00 | 0.00 | 75 | 1014.3 |
| 20260507004003 | 42 | 0 | 0.0 | 0.0 | 0.00 | 0.00 | 0.00 | 74 | 1014.2 |
| 20260507003003 | 42 | 0 | 0.0 | 0.0 | 0.00 | 0.00 | 0.00 | 73 | 1014.2 |
| 20260507002003 | 43 | 0 | 0.0 | 0.0 | 0.00 | 0.00 | 0.00 | 72 | 1014.2 |
| 20260507001003 | 43 | 0 | 0.0 | 0.0 | 0.00 | 0.00 | 0.00 | 71 | 1014.1 |
| 20260507000003 | 43 | 0 | 0.0 | 0.0 | 0.00 | 0.00 | 0.00 | 70 | 1014.1 |
| 20260506235217 | 44 | 0 | 0.0 | 0.0 | 0.00 | 0.00 | 0.00 | 69 | 1013.9 |
| 20260506234217 | 44 | 0 | 0.0 | 0.0 | 0.00 | 0.00 | 0.00 | 68 | 1013.9 |
| 20260506233003 | 44 | 0 | 0.0 | 0.0 | 0.00 | 0.00 | 0.00 | 66 | 1013.9 |
| 20260506232003 | 45 | 0 | 0.0 | 0.0 | 0.00 | 0.00 | 0.00 | 66 | 1013.9 |
| 20260506231003 | 45 | 0 | 0.0 | 0.0 | 0.00 | 0.00 | 0.00 | 64 | 1013.9 |
| 20260506230003 | 45 | 92 | 1.0 | 1.0 | 0.00 | 0.00 | 0.00 | 64 | 1013.8 |
| 20260506225003 | 45 | 175 | 1.0 | 1.0 | 0.00 | 0.00 | 0.00 | 64 | 1013.7 |
| 20260506224217 | 45 | 0 | 0.0 | 0.0 | 0.00 | 0.00 | 0.00 | 63 | 1013.7 |
| 20260506223216 | 45 | 0 | 2.0 | 2.0 | 0.00 | 0.00 | 0.00 | 64 | 1013.6 |
| 20260506222003 | 45 | 172 | 0.0 | 2.0 | 0.00 | 0.00 | 0.00 | 65 | 1013.7 |
| 20260506221003 | 45 | 178 | 1.0 | 7.0 | 0.00 | 0.00 | 0.00 | 66 | 1013.7 |
| 20260506220004 | 45 | 184 | 1.0 | 6.0 | 0.00 | 0.00 | 0.00 | 65 | 1013.7 |
| 20260506215003 | 44 | 182 | 7.0 | 7.0 | 0.00 | 0.00 | 0.00 | 66 | 1013.7 |
| 20260506214003 | 45 | 164 | 6.0 | 6.0 | 0.00 | 0.00 | 0.00 | 66 | 1013.6 |
| 20260506213003 | 45 | 226 | 2.0 | 2.0 | 0.00 | 0.00 | 0.00 | 67 | 1013.5 |
| 20260506212003 | 46 | 199 | 5.0 | 5.0 | 0.00 | 0.00 | 0.00 | 67 | 1013.6 |
| 20260506211218 | 46 | 178 | 6.0 | 6.0 | 0.00 | 0.00 | 0.00 | 68 | 1013.5 |
| 20260506210003 | 46 | 0 | 0.0 | 0.0 | 0.00 | 0.00 | 0.00 | 70 | 1013.4 |
| 20260506205003 | 47 | 0 | 0.0 | 0.0 | 0.00 | 0.00 | 0.00 | 71 | 1013.3 |
| 20260506204003 | 48 | 0 | 0.0 | 0.0 | 0.00 | 0.00 | 0.00 | 73 | 1013.4 |
| 20260506203218 | 48 | 0 | 0.0 | 0.0 | 0.00 | 0.00 | 0.00 | 74 | 1013.3 |
| 20260506202003 | 49 | 0 | 0.0 | 0.0 | 0.00 | 0.00 | 0.00 | 75 | 1013.2 |
| 20260506201003 | 50 | 0 | 0.0 | 0.0 | 0.00 | 0.00 | 0.00 | 76 | 1013.1 |
| 20260506200003 | 50 | 0 | 0.0 | 0.0 | 0.00 | 0.00 | 0.00 | 76 | 1013.1 |
| 20260506195003 | 50 | 0 | 0.0 | 0.0 | 0.00 | 0.00 | 0.00 | 76 | 1013.0 |
| 20260506194003 | 51 | 0 | 0.0 | 0.0 | 0.00 | 0.00 | 0.00 | 75 | 1013.0 |
| 20260506193003 | 51 | 0 | 0.0 | 0.0 | 0.00 | 0.00 | 0.00 | 74 | 1012.9 |
| 20260506192003 | 51 | 0 | 0.0 | 0.0 | 0.00 | 0.00 | 0.00 | 74 | 1012.8 |
| 20260506191003 | 52 | 0 | 0.0 | 0.0 | 0.00 | 0.00 | 0.00 | 73 | 1012.7 |
| 20260506190003 | 52 | 0 | 0.0 | 0.0 | 0.00 | 0.00 | 0.00 | 73 | 1012.6 |
| 20260506185217 | 52 | 0 | 0.0 | 0.0 | 0.00 | 0.00 | 0.00 | 73 | 1012.5 |
| 20260506184003 | 52 | 0 | 0.0 | 0.0 | 0.00 | 0.00 | 0.00 | 73 | 1012.4 |
| 20260506183003 | 53 | 0 | 0.0 | 0.0 | 0.00 | 0.00 | 0.00 | 73 | 1012.3 |
| 20260506182003 | 53 | 0 | 0.0 | 0.0 | 0.00 | 0.00 | 0.00 | 73 | 1012.1 |
| 20260506181003 | 53 | 0 | 0.0 | 0.0 | 0.00 | 0.00 | 0.00 | 72 | 1012.0 |
| 20260506180004 | 53 | 0 | 0.0 | 0.0 | 0.00 | 0.00 | 0.00 | 71 | 1012.0 |
| 20260506175217 | 54 | 0 | 0.0 | 0.0 | 0.00 | 0.00 | 0.00 | 70 | 1011.9 |
| 20260506174003 | 55 | 0 | 0.0 | 0.0 | 0.00 | 0.00 | 0.00 | 68 | 1011.8 |
| 20260506173003 | 55 | 0 | 0.0 | 0.0 | 0.00 | 0.00 | 0.00 | 66 | 1011.8 |
| 20260506172003 | 55 | 0 | 0.0 | 0.0 | 0.00 | 0.00 | 0.00 | 65 | 1011.8 |
| 20260506171217 | 55 | 321 | 1.0 | 1.0 | 0.00 | 0.00 | 0.00 | 64 | 1011.7 |
| 20260506170216 | 55 | 355 | 5.0 | 5.0 | 0.00 | 0.00 | 0.00 | 63 | 1011.7 |
| 20260506165003 | 55 | 331 | 2.0 | 2.0 | 0.00 | 0.00 | 0.00 | 65 | 1011.6 |
| 20260506164216 | 55 | 338 | 2.0 | 2.0 | 0.00 | 0.00 | 0.00 | 64 | 1011.6 |
| 20260506163003 | 55 | 337 | 4.0 | 4.0 | 0.00 | 0.00 | 0.00 | 63 | 1011.7 |
| 20260506162003 | 55 | 9 | 5.0 | 5.0 | 0.00 | 0.00 | 0.00 | 64 | 1011.7 |
| 20260506161218 | 55 | 9 | 5.0 | 5.0 | 0.00 | 0.00 | 0.00 | 64 | 1011.6 |
| 20260506160003 | 55 | 325 | 4.0 | 4.0 | 0.00 | 0.00 | 0.00 | 63 | 1011.6 |
| 20260506155003 | 56 | 265 | 2.0 | 2.0 | 0.00 | 0.00 | 0.00 | 63 | 1011.6 |
| 20260506154003 | 56 | 0 | 2.0 | 2.0 | 0.00 | 0.00 | 0.00 | 64 | 1011.6 |
| 20260506153003 | 55 | 311 | 6.0 | 6.0 | 0.00 | 0.00 | 0.00 | 65 | 1011.6 |
| 20260506152003 | 55 | 0 | 0.0 | 0.0 | 0.00 | 0.00 | 0.00 | 64 | 1011.6 |
| 20260506151218 | 55 | 319 | 5.0 | 5.0 | 0.00 | 0.00 | 0.00 | 65 | 1011.6 |
| 20260506150003 | 55 | 0 | 1.0 | 1.0 | 0.00 | 0.00 | 0.00 | 65 | 1011.6 |
| 20260506145003 | 54 | 354 | 4.0 | 4.0 | 0.00 | 0.00 | 0.00 | 67 | 1011.5 |
| 20260506144003 | 54 | 360 | 1.0 | 1.0 | 0.00 | 0.00 | 0.00 | 66 | 1011.4 |
| 20260506143003 | 54 | 360 | 8.0 | 8.0 | 0.00 | 0.00 | 0.00 | 65 | 1011.5 |
| 20260506142217 | 54 | 360 | 5.0 | 5.0 | 0.00 | 0.00 | 0.00 | 64 | 1011.5 |
| 20260506141003 | 55 | 344 | 7.0 | 7.0 | 0.00 | 0.00 | 0.00 | 66 | 1011.6 |
| 20260506140003 | 55 | 0 | 0.0 | 0.0 | 0.00 | 0.00 | 0.00 | 64 | 1011.5 |
| 20260506135003 | 56 | 347 | 4.0 | 4.0 | 0.00 | 0.00 | 0.00 | 64 | 1011.5 |
| 20260506134003 | 56 | 323 | 5.0 | 5.0 | 0.00 | 0.00 | 0.00 | 62 | 1011.3 |
| 20260506133003 | 56 | 0 | 0.0 | 0.0 | 0.00 | 0.00 | 0.00 | 62 | 1011.3 |
| 20260506132003 | 56 | 354 | 6.0 | 6.0 | 0.00 | 0.00 | 0.00 | 63 | 1011.2 |
| 20260506131003 | 57 | 0 | 0.0 | 0.0 | 0.00 | 0.00 | 0.00 | 61 | 1011.1 |
| 20260506130003 | 58 | 0 | 0.0 | 0.0 | 0.00 | 0.00 | 0.00 | 60 | 1011.1 |
| 20260506125003 | 59 | 0 | 0.0 | 0.0 | 0.00 | 0.00 | 0.00 | 57 | 1011.1 |
| 20260506124003 | 61 | 360 | 0.0 | 6.0 | 0.00 | 0.00 | 0.00 | 55 | 1011.0 |
| 20260506123003 | 61 | 360 | 0.0 | 1.0 | 0.00 | 0.00 | 0.00 | 52 | 1011.0 |
| 20260506122003 | 62 | 134 | 0.0 | 1.0 | 0.00 | 0.00 | 0.00 | 49 | 1011.0 |
| 20260506121003 | 63 | 85 | 0.0 | 6.0 | 0.00 | 0.00 | 0.00 | 46 | 1011.0 |
| 20260506120216 | 63 | 103 | 1.0 | 1.0 | 0.00 | 0.00 | 0.00 | 45 | 1011.0 |
| 20260506115003 | 63 | 36 | 1.0 | 10.0 | 0.00 | 0.00 | 0.00 | 45 | 1011.0 |
| 20260506114003 | 63 | 110 | 1.0 | 10.0 | 0.00 | 0.00 | 0.00 | 46 | 1011.0 |
| 20260506113003 | 64 | 87 | 1.0 | 11.0 | 0.00 | 0.00 | 0.00 | 45 | 1011.0 |
| 20260506112003 | 63 | 111 | 1.0 | 11.0 | 0.00 | 0.00 | 0.00 | 45 | 1011.1 |
| 20260506111003 | 63 | 120 | 1.0 | 11.0 | 0.00 | 0.00 | 0.00 | 49 | 1011.2 |
| 20260506110003 | 63 | 91 | 3.0 | 12.0 | 0.00 | 0.00 | 0.00 | 48 | 1011.2 |
| 20260506105003 | 62 | 52 | 2.0 | 14.0 | 0.00 | 0.00 | 0.00 | 50 | 1011.2 |
| 20260506104003 | 61 | 32 | 6.0 | 6.0 | 0.00 | 0.00 | 0.00 | 52 | 1011.3 |
| 20260506103218 | 61 | 15 | 0.0 | 5.0 | 0.00 | 0.00 | 0.00 | 49 | 1011.2 |
| 20260506102003 | 61 | 28 | 4.0 | 4.0 | 0.00 | 0.00 | 0.00 | 52 | 1011.2 |
| 20260506101003 | 60 | 31 | 5.0 | 5.0 | 0.00 | 0.00 | 0.00 | 53 | 1011.2 |
| 20260506100003 | 59 | 303 | 4.0 | 4.0 | 0.00 | 0.00 | 0.00 | 55 | 1011.3 |
| 20260506095003 | 58 | 322 | 4.0 | 4.0 | 0.00 | 0.00 | 0.00 | 54 | 1011.4 |
| 20260506094218 | 58 | 319 | 4.0 | 4.0 | 0.00 | 0.00 | 0.00 | 55 | 1011.4 |
| 20260506093003 | 58 | 360 | 1.0 | 1.0 | 0.00 | 0.00 | 0.00 | 58 | 1011.4 |
| 20260506092003 | 56 | 310 | 5.0 | 5.0 | 0.00 | 0.00 | 0.00 | 59 | 1011.4 |
| 20260506091003 | 56 | 308 | 4.0 | 4.0 | 0.00 | 0.00 | 0.00 | 59 | 1011.4 |
| 20260506090003 | 55 | 328 | 4.0 | 4.0 | 0.00 | 0.00 | 0.00 | 58 | 1011.5 |
| 20260506085003 | 55 | 0 | 0.0 | 0.0 | 0.00 | 0.00 | 0.00 | 58 | 1011.4 |
| 20260506084003 | 55 | 313 | 5.0 | 5.0 | 0.00 | 0.00 | 0.00 | 59 | 1011.3 |
| 20260506083003 | 54 | 332 | 1.0 | 1.0 | 0.00 | 0.00 | 0.00 | 58 | 1011.4 |
| 20260506082003 | 54 | 46 | 6.0 | 6.0 | 0.00 | 0.00 | 0.00 | 56 | 1011.4 |
| 20260506081217 | 53 | 61 | 6.0 | 6.0 | 0.00 | 0.00 | 0.00 | 57 | 1011.4 |
| 20260506080217 | 52 | 41 | 10.0 | 10.0 | 0.00 | 0.00 | 0.00 | 58 | 1011.4 |
| 20260506073003 | 50 | 91 | 7.0 | 7.0 | 0.00 | 0.00 | 0.00 | 59 | 1011.6 |
| 20260506072003 | 49 | 46 | 0.0 | 5.0 | 0.00 | 0.00 | 0.00 | 60 | 1011.5 |
| 20260506071217 | 48 | 79 | 1.0 | 8.0 | 0.00 | 0.00 | 0.00 | 60 | 1011.5 |
| 20260506062003 | 44 | 60 | 8.0 | 8.0 | 0.00 | 0.00 | 0.00 | 63 | 1011.8 |
| 20260506061216 | 44 | 0 | 5.0 | 5.0 | 0.00 | 0.00 | 0.00 | 65 | 1011.8 |
| 20260506051218 | 36 | 0 | 0.0 | 0.0 | 0.00 | 0.00 | 0.00 | 80 | 1012.0 |
| 20260506045003 | 36 | 0 | 0.0 | 0.0 | 0.00 | 0.00 | 0.00 | 79 | 1012.0 |